Regional Weather Roundup
Issued by NWS Grand Forks, ND

Home | Current Version | Previous Version | Graphics & Text | Print | Product List | Glossary On
Versions: 1 2 3 4 5 6 7 8 9 10 11 12 13 14 15 16 17 18 19 20 21 22 23 24 25 26 27 28 29 30 31 32 33 34 35 36 37 38 39 40 41 42 43 44 45 46 47 48 49 50
000
ASUS43 KFGF 030731
RWRFGF
PRAIRIE TO PINES  WEATHER ROUNDUP
NATIONAL WEATHER SERVICE EASTERN NORTH DAKOTA/GRAND FORKS ND
200 AM CDT WED JUN 03 2015

 **SATELLITE DATA USED TO AUGMENT SKY COVER AT AUTOMATED STATIONS**
 *****  WEATHER ACROSS EASTERN NORTH DAKOTA  *****

CITY           SKY/WX    TMP DP  RH WIND       PRES   REMARKS
GRAND FORKS    CLOUDY    62  60  93 N9        29.73S
GRAND FRKS AFB CLOUDY    61  59  94 N13       29.74S
GRAND FRKS NWS   N/A     61 N/A N/A NE13        N/A
DEVILS LAKE    CLOUDY    54  46  76 NE18G24   29.79S
FARGO          PTCLDY    70  62  76 S9        29.66F
WAHPETON ARPT  PTSUNNY   66  57  72 S13       29.71R
$$

 ***** WEATHER ACROSS CENTRAL AND WESTERN NORTH DAKOTA  *****

CITY           SKY/WX    TMP DP  RH WIND       PRES   REMARKS
BISMARCK       CLOUDY    61  57  87 W13       29.80F
MINOT          LGT RAIN  50  44  80 N20G31    29.89R
JAMESTOWN      CLOUDY    61  59  93 N13       29.75S FOG
MINOT AFB      RAIN      48  48 100 N16       29.91R FOG
GARRISON         N/A     53  49  86 N12G22    29.85R
WILLISTON      PTCLDY    52  49  89 N6        29.94R
DICKINSON      CLOUDY    55  50  83 N9        29.90R
HETTINGER      CLOUDY    55  51  86 NW13      29.91F
$$

 *****  OTHER AIRPORT OBSERVATIONS IN OUR AREA  *****

CITY           SKY/WX    TMP DP  RH WIND       PRES   REMARKS
WALHALLA       FAIR      52  43  71 MISG      29.84R
GRAFTON AIRPOR CLOUDY    55  55 100 N12       29.79R
VALLEY CITY AR CLOUDY    61  61 100 N10       29.73S
CANDO          CLOUDY    54  43  66 N14       29.84S
CAVALIER APRT  CLOUDY    54  41  62 NE12      29.82R
GWINNER        NOT AVBL
SHEYENNE NWR     N/A     70  63  78 W7        29.95
ROLLA          CLOUDY    48  43  81 N21       29.90R
 ***** THE ABOVE OBSERVATIONS ARE NON NWS ARE NOT QUALITY
       CONTROLLED AND MAY MIS-REPORT RAIN FOR SNOW...
$$

  *****  WEATHER ACROSS NORTHERN MINNESOTA  *****

CITY           SKY/WX    TMP DP  RH WIND       PRES   REMARKS
FLAG ISLAND    CLOUDY    57  57 100 N12       29.80F FOG
WARROAD        CLOUDY    59  55  88 NE8       29.80F FOG
ROSEAU         CLOUDY    61  55  82 NE12      29.79F HAZE
HALLOCK        CLOUDY    55  54  94 N9        29.78S
THF RVR FALLS  CLOUDY    61  57  88 E10       29.77R
BAUDETTE       CLOUDY    59  57  93 E5        29.80S
WASKISH        LGT RAIN  59  57  94 SE8       29.79F
CROOKSTON      CLOUDY    61  61 100 E13G20    29.72F
STEPHEN NDAWN    N/A     61  61 100 NE10        N/A
GREENBUSH NDAW   N/A     61  59  94 NE12        N/A
$$
  *****  WEATHER ACROSS CENTRAL AND WEST MINNESOTA  *****

CITY           SKY/WX    TMP DP  RH WIND       PRES   REMARKS
FOSSTON        TSTM      59  55  88 E5        29.79R
BEMIDJI        CLOUDY    61  56  83 S6        29.78F
PARK RAPIDS    TSTM      65  56  72 S13       29.77S
ELBOW LAKE     FAIR      65  57  75 S18       29.74S
WADENA         CLOUDY    64  57  77 SE8       29.78S
DETROIT LAKES  PTCLDY    66  57  72 S10       29.75S
MOORHEAD       CLEAR     70  61  73 S15       29.69F
FERGUS FALLS   PTCLDY    66  57  72 S15       29.73S
MORRIS MN      PTCLDY    66  57  72 S15       29.75S
STAPLES        TSTM      63  55  77 S3G16     29.80R
$$
  *****  WEATHER ELSEWHERE ACROSS MINNESOTA  *****

CITY           SKY/WX    TMP DP  RH WIND       PRES   REMARKS
DULUTH         CLOUDY    52  42  69 SE7       29.89S
INTRNTL FALLS  LGT RAIN  59  57  93 S6        29.82F
ELY            RAIN      61  52  72 NW8       29.92R
CLOQUET        CLOUDY    50  43  76 CALM      29.88R
WHEATON        MOCLDY    64  59  82 SE14      29.74R
BRAINERD       CLOUDY    67  52  58 S16G23    29.83S
HIBBING        CLOUDY    60  52  74 S6        29.85S
ALEXANDRIA     PTCLDY    66  55  67 S17G25    29.79F
SAINT CLOUD    CLOUDY    66  53  63 S14       29.84F
MINNEAPOLIS    CLOUDY    66  53  63 S13G20    29.89F
$$

  *****  WEATHER ACROSS SOUTH DAKOTA  *****

CITY           SKY/WX    TMP DP  RH WIND       PRES   REMARKS
SIOUX FALLS    CLOUDY    65  59  81 S12       29.83S
BROOKINGS      CLOUDY    66  59  77 S14       29.82R
WATERTOWN      CLOUDY    68  61  78 S14       29.78R
HURON          CLOUDY    71  63  75 S14       29.76S
SISSETON         N/A     72  63  73 SW13      29.71R
ABERDEEN       CLOUDY    69  65  86 SW9       29.74R
MITCHELL       CLOUDY    70  61  73 SW10G21   29.78F
PIERRE         CLOUDY    67  62  84 W14       29.81R
MOBRIDGE       CLOUDY    63  57  81 NW18G25   29.79R
RAPID CITY     MOCLDY    56  52  86 NW13      29.92F
$$

  *****  SOME WEATHER IN NEARBY STATES *****

CITY           SKY/WX    TMP DP  RH WIND       PRES   REMARKS
GLASGOW MT     CLOUDY    56  49  77 E8        29.96F
GREAT FALLS MT MOCLDY    49  48  97 SW6       29.97S
CHEYENNE WY    CLEAR     54  48  80 W6        29.98F
SCOTTSBLUFF NE PTCLDY    60  51  72 NE7       29.92R
OMAHA NE       PTCLDY    64  58  80 SE13      29.89F
DES MOINES IA  MOCLDY    62  55  77 SE9       29.97S
DAVENPORT IA   MOCLDY    58  50  75 SE7       30.03S
CHICAGO IL     MOCLDY    53  44  71 SE3       30.08F
EAU CLAIRE WI  CLEAR     60  48  64 S5        29.95F
LA CROSSE WI   CLEAR     62  49  62 S8        29.98S
$$

  *****  SOME NATIONAL WEATHER *****

CITY           SKY/WX    TMP DP  RH WIND       PRES   REMARKS
LA GUARDIA NY  CLOUDY    53  50  89 E8        30.17F
RALEIGH NC     CLOUDY    67  65  93 CALM      30.00F
ATLANTA GA     PTCLDY    68  63  84 E7        29.96F
NEW ORLEANS LA PTCLDY    78  68  71 NE7       29.92F
OKLAHOMA CITY  PTCLDY    71  64  78 S10       29.90F
ALBUQUERQUE NM CLEAR     71  26  18 N5        30.02S
SALT LAKE CITY PTCLDY    64  46  52 S5        29.90S
LOS ANGELES CA PTCLDY    61  58  90 S3        29.95F
BOISE ID       CLEAR     57  46  66 W7        29.99R
SEATTLE WA     CLOUDY    56  49  77 SW10      30.08S
$$

*** WEATHER ACROSS MANITOBA...SASKATCHEWAN AND ONTARIO ***
                ***ONTARIO***

CITY           SKY/WX    TMP DP  RH WIND       PRES   REMARKS
GERALDTON      LGT RAIN  48  46  93 CALM      29.94F
THUNDER BAY    LGT RAIN  50  43  76 NE5       29.93F
SIOUX LOOKOUT  LGT RAIN  55  55 100 S2        29.86S FOG
TORONTO        CLEAR     52  43  71 E3        30.20F
BIG TROUT LK   CLEAR     45  37  76 N6        29.86R
PICKLE LAKE    NOT AVBL
DRYDEN         CLOUDY    57  55  94 N2        29.84F FOG
KENORA         FOG       57  57 100 NE2       29.85F VSB 3/4
$$
                *** MANITOBA***

CITY           SKY/WX    TMP DP  RH WIND       PRES   REMARKS
BRANDON        LGT RAIN  54  41  62 NE15G22   29.92R
DAUPHIN        CLOUDY    52  39  62 W2        29.96S
ISLAND LAKE    CLEAR     43  36  75 W3        29.93R
PILOT MOUND      N/A     52  37  58 N10G17      N/A
THE PAS        PTCLDY    39  32  75 N2        30.01R
THOMPSON       CLEAR     39  30  70 NW7       29.95R
WINNIPEG       MOCLDY    54  36  50 N14G22    29.86F
LYNN LAKE      CLEAR     39  30  70 NW7       29.99R
CHURCHILL      LGT RAIN  36  34  93 NW23G33   29.74R
GILLAM         MOCLDY    45  34  65 NW17G31   29.84R
$$
                ***SASKATCHEWAN***

CITY           SKY/WX    TMP DP  RH WIND       PRES   REMARKS
ESTEVAN        LGT RAIN  52  50  93 NE8       29.95S
KINDERSLEY     CLOUDY    52  28  40 E13       29.99S
LLOYDMINSTER   CLOUDY    54  36  50 SE10      29.98S
PRINCE ALBERT  CLOUDY    37  32  81 CALM      30.01
REGINA         CLOUDY    54  39  58 NE6       29.97S
YORKTON        CLOUDY    52  43  71 S2        29.99S
N. BATTLEFORD  CLOUDY    46  34  61 E5        30.02S
LA RONGE       MOCLDY    36  30  80 CALM      30.02R
SASKATOON      MOCLDY    48  34  57 E2        30.02S
SWIFT CURRENT  CLOUDY    50  34  53 SE5       29.99R
$$
NOTE: THESE ARE AUTOMATED STATIONS WITH LIMITED QUALITY CONTROL
      "FAIR" INDICATES FEW OR NO CLOUDS BELOW 12,000 FEET WITH NO
      SIGNIFICANT WEATHER AND/OR OBSTRUCTIONS TO VISIBILITY.
      SKY/WX - SKY CONDITION AND SIGNIFICANT WEATHER.
      TMP - AIR TEMPERATURE.    DP   - DEWPOINT TEMPERATURE.
      RH  - RELATIVE HUMIDITY.  PRES - PRESSURE.
      HX  - HEAT INDEX.         WCI  - WIND CHILL INDEX.
$


USA.gov is the U.S. government's official web portal to all federal, state and local government web resources and services.